sat.trackr.live / text

‹ back to catalog

STARLINK-36645

NORAD 67707 · 2026-025Q

PAYLOAD ACTIVE UNKNOWN

§ Identity

Operator
Country
US
Launch date
2026-02-07
Launch site
AFWTR
Launch vehicle
Mass (kg)
RCS (m²)

Purposes: comms

External: N2YO · Heavens-Above · Gunter

§ Orbital elements

Epoch: 2026-09-19T13:00:50.495040Z

Period
93.91 min
Inclination
97.2861°
Eccentricity
0.0000575
Mean motion
15.33456624 rev/d
Perigee alt
465.1 km
Apogee alt
465.9 km
Semi-major
6,843.6 km
B*
8.1269e-4
RAAN
12.5277°
Arg perigee
91.5144°
Mean anomaly
268.6165°
Rev number
3,572

§ Raw data

STARLINK-366451 67707U 26025Q   26262.54225110  .00026262  00000+0  81269-3 0  99962 67707  97.2861  12.5277 0000575  91.5144 268.6165 15.33456624 35727

JSON: /api/v1/satellites/67707 · /tle

For live sub-satellite position, see the globe view (requires WebGL).

§ Visibility from observer

Set your observer location to see the next 7 days of passes ≥ 10°. The values pass through the URL so the page stays shareable.

No JS? Fill the form by hand. The geolocation button needs JavaScript.